Volver al catálogo

JIAOTONG VDES

ActivoComunicacionesSSO
NORAD 54588·PAYLOAD·🇨🇳 China

Lanzado Dec 7, 2022 desde Jiuquan Satellite Launch Center

Loading…

Próximos Pases (próximas 24 horas)

TLE

ActualizadoSource: Space-Track

Época: Sep 14, 2026, 23:18 UTC

1 54588U 22164A   26257.97122111  .00000256  00000-0  83625-4 0  9992
2 54588  98.2419 274.6653 0010968  58.5903 301.6360 14.46121506199055

Sigue JIAOTONG VDES en tiempo real con AllMySat

Download on the App Store